Flag for Switzerland Weather past 2 weeks in Affoltern am Albis, Zurich, Switzerland

Now
32 °F

Chilly.


Feels Like: 24 °F
Forecast: 3 / 20 °F
Wind: 9 mph from Southwest

Location: Zurich Town / Ville.

Current Time: Dec 28, 2014 at 2:46:53 AM

Latest Report: Dec 28, 2014 at 2:00 AM


Visibility: N/A

Pressure: 29.58 "Hg

Humidity: 95%

Dew point: 31 °F

Location of Affoltern am AlbisLocation

Historic Weather in Affoltern am Albis — Graph

°F

Affoltern am Albis temperature yesterday

Maximum temperature yesterday: 36 °F (at 2:00 PM)
Minimum temperature yesterday: 29 °F (at 8:00 AM)
Average temperature yesterday: 32 °F

Past Weeks' High & Low Weather Summary

 TemperatureHumidityPressure
High54 °F (Dec 19, 2:00 PM)100% (Dec 27, 12:00 PM)30.60 "Hg (Dec 27, 12:00 PM)
Low29 °F (Dec 27, 8:00 AM)43% (Dec 13, 1:00 PM)29.56 "Hg (Dec 27, 6:00 PM)
Average41 °F79%30.20 "Hg
* Reported Dec 13 1:00 AM — Dec 28 1:00 AM, Affoltern am Albis, Weather by CustomWeather, © 2014

Note: Actual official high and low records may vary slightly from our data, if they occured in-between our weather recording intervals... More about our weather records

Advertising

Affoltern am Albis weather history for previous 24 hours

 ConditionsComfort  
Time TempWeatherWind HumidityBarometerVisibility
1:00 AM
Dec 28
32 °FChilly.10 mph95%29.59 "HgN/A
12:00 AM32 °FChilly.14 mph95%29.58 "HgN/A
11:00 PM
Dec 27
33 °FChilly.13 mph91%29.58 "HgN/A
10:00 PM32 °FChilly.10 mph99%29.58 "HgN/A
9:00 PM33 °FChilly.15 mph93%29.57 "HgN/A
8:00 PM33 °FChilly.14 mph92%29.57 "HgN/A
7:00 PM34 °FFog.17 mph89%29.57 "HgN/A
6:00 PM34 °FChilly.18 mph87%29.56 "HgN/A
5:00 PM34 °FChilly.17 mph91%29.57 "HgN/A
4:00 PM33 °FChilly.12 mph97%29.59 "HgN/A
3:00 PM34 °FChilly.15 mph95%29.60 "HgN/A
2:00 PM36 °FChilly.16 mph89%29.60 "HgN/A
1:00 PM35 °FFog.14 mph90%29.61 "HgN/A
12:00 PM31 °FChilly.3 mph100%29.65 "HgN/A
11:00 AM31 °FChilly.3 mph99%29.67 "HgN/A
10:00 AM30 °FChilly.5 mph98%29.70 "HgN/A
9:00 AM29 °FChilly.6 mph97%29.76 "HgN/A
8:00 AM29 °FChilly.5 mph98%29.80 "HgN/A
7:00 AM29 °FPassing clouds.5 mph96%29.86 "HgN/A
6:00 AM30 °FChilly.6 mph88%29.92 "HgN/A
5:00 AM31 °FChilly.5 mph77%29.98 "HgN/A
4:00 AM31 °FChilly.3 mph80%30.06 "HgN/A
3:00 AM31 °FChilly.3 mph86%30.13 "HgN/A
2:00 AM30 °FChilly.2 mph91%30.17 "HgN/A
Weather by CustomWeather, © 2014

See weather overviewHow to use our weather pages